[[{"header":{"parameterUnit":"m.s-1","parameterCategory":1,"la1":30.2991,"la2":30.254,"lo1":-89.0895,"lo2":-89.0444,"dy":0.0017,"dx":0.0017,"nx":28,"ny":28,"refTime":"2024-07-28T09:00:00:Z","depth":0,"parameterNumber":2,"parameterNumberName":"U-component_of_WINDS"},"data":[0,0,0,0,0,0,0,0,0,0,0,0,0,0,0,0,0,0,0,0,0,0,0,0,0,0,0,0,0,0,0,0,0,0,0,0,0,0,0,0,0,0,0,0,0,0,0,0,0,0,0,0,0,0,0,0,0,0,4.9495,4.9496,0,4.9594,4.9595,4.9596,4.9487,4.9483,4.9478,4.9474,4.958,4.9587,4.9593,0,0,0,0,0,0,0,0,0,0,0,0,0,4.9213,4.9219,4.9495,4.9496,4.9497,4.9593,4.9595,4.9596,4.9487,4.9482,4.9477,4.9473,4.9578,4.9586,4.9594,0,0,0,0,0,0,0,0,0,0,0,0,0,4.9327,4.9221,4.9495,4.9454,4.9452,4.9593,4.9595,4.9597,4.9489,4.9482,4.9476,4.947,4.9575,4.9585,4.9595,4.9782,0,0,4.9626,4.963,0,0,0,0,0,0,0,0,4.932,4.9337,4.9459,4.9457,4.9455,4.9521,4.9534,4.9659,4.949,4.9475,4.9474,4.9467,4.9566,4.9576,4.9609,4.9787,4.9792,4.9627,4.9633,4.9637,4.964,0,0,0,0,0,0,0,4.9313,4.9332,4.9534,4.9461,4.9458,4.9432,4.9441,4.9557,4.9555,4.9476,4.9468,4.9481,4.9564,4.96,4.9611,4.9793,4.9626,4.9635,4.9642,4.9646,5.0125,5.0132,0,0,0,0,0,0,4.9309,4.9326,4.9531,4.9537,4.9371,4.9442,4.9452,4.9506,4.9553,4.9554,4.9486,4.9475,4.9585,4.9599,4.9614,4.9832,4.9637,4.9647,4.9652,5.0119,5.0127,5.0134,0,0,0,0,0,0,4.9303,4.9328,4.9527,4.943,4.9453,4.9454,4.9515,4.9512,4.9547,4.9561,4.956,4.9523,4.9581,4.96,4.974,4.9834,4.9651,4.966,5.0111,5.0121,5.0131,5.0273,0,0,0,0,0,0,4.9296,4.9327,4.9398,4.9432,4.9458,4.9651,4.9521,4.9518,4.9564,4.9551,4.9595,4.9596,4.9578,4.9725,4.975,4.9845,4.9668,5.0102,5.0116,5.0127,5.026,5.0286,5.0309,0,0,0,0,0,4.9286,4.9436,4.9402,4.9427,4.9547,4.9657,4.9672,4.9646,4.9572,4.9643,4.9651,4.9595,4.9821,4.9741,4.9767,4.9867,5.0096,5.0112,5.0126,5.0248,5.0281,5.0309,0,0,0,0,0,0,4.9415,4.944,4.9402,4.9567,4.961,4.9638,4.9727,4.9682,4.9748,4.9733,4.97,4.971,4.9858,4.9877,4.9787,5.0048,4.9946,4.9968,5.003,5.0061,5.0086,5.0077,4.9676,0,0,0,0,0,4.9462,4.9549,4.9566,4.971,4.9733,4.9727,4.9774,4.9749,4.9793,4.9812,4.983,4.9876,4.9956,5.001,5.0086,5.0262,5.0269,5.0344,5.0369,5.0389,5.0407,5.0498,5.053,5.0184,5.0184,5.0183,0,0,4.9562,4.9586,4.9643,4.9736,4.9767,4.9856,4.9743,4.9844,4.991,4.9827,4.9959,4.9975,5.0023,5.0181,5.0252,5.0201,5.0504,5.0409,5.0425,5.0432,5.0517,5.055,5.0579,5.0194,5.0192,5.0191,0,0,4.9787,4.9816,4.9936,4.9968,5.0015,5.0009,5.0038,5.0072,5.0078,5.021,5.0148,5.0227,5.0368,5.0404,5.0441,5.0677,5.0626,5.0703,5.0832,5.0921,5.0948,5.0972,5.1053,5.1083,5.0721,5.0722,5.0722,0,4.9905,5.0037,5.0005,5.0108,5.015,5.0078,5.0199,5.0233,5.0303,5.0333,5.0275,5.0447,5.0476,5.0639,5.0696,5.073,5.076,5.0697,5.0947,5.0971,5.0993,5.1069,5.11,5.073,5.0729,5.0728,5.0728,0,5.0177,5.027,5.0362,5.0427,5.048,5.0593,5.0577,5.0635,5.0606,5.0606,5.0739,5.077,5.0848,5.0886,5.0861,5.1045,5.1012,5.0952,5.0848,5.1035,5.1106,5.1135,5.0743,5.074,5.0737,5.0735,0,0,5.0487,5.0531,5.0565,5.0592,5.0638,5.0708,5.0817,5.0891,5.094,5.0991,5.1079,5.1198,5.1141,5.1183,5.1161,5.1239,5.142,5.1169,5.1169,5.1211,5.1621,5.1663,5.1698,5.1387,5.1393,5.1397,5.1615,0,5.071,5.0896,5.0869,5.1048,5.1131,5.1062,5.1156,5.1194,5.1197,5.1268,5.1272,5.1355,5.1276,5.13,5.1375,5.1382,5.1501,5.1366,5.1468,5.1472,5.1454,5.1736,5.1782,5.1987,5.1643,5.1648,5.1652,0,5.0995,5.1052,5.1239,5.1267,5.1301,5.1386,5.145,5.152,5.1561,5.1557,5.1602,5.1565,5.1672,5.1569,5.1715,5.1624,5.1664,5.1674,5.1681,5.1687,5.1571,5.1746,5.2052,5.2081,5.1696,5.1692,5.1689,0,5.1197,5.1322,5.1448,5.1474,5.1512,5.1572,5.1591,5.1625,5.1671,5.1728,5.1756,5.1826,5.1864,5.1918,5.19,5.1827,5.205,5.1945,5.2048,5.2049,5.2096,5.2093,5.2409,5.2128,5.2128,5.2127,5.2126,0,5.1447,5.1563,5.1538,5.1616,5.1743,5.1712,5.1838,5.1849,5.188,5.1958,5.1905,5.1979,5.1952,5.2025,5.2012,5.2133,5.2152,5.2151,5.2146,5.2154,5.2154,5.2178,5.2162,5.2135,5.2133,5.2132,5.213,0,5.1694,5.1682,5.1815,5.1838,5.1847,5.1939,5.1959,5.2032,5.2029,5.2129,5.215,5.2148,5.223,5.2218,5.2311,5.2302,5.2452,5.2431,5.2437,5.2431,5.2533,5.2522,5.2873,5.2916,5.2611,5.2614,5.2616,0,5.1853,5.1939,5.1971,5.2018,5.204,5.2118,5.2163,5.2135,5.2184,5.2235,5.2301,5.2379,5.2438,5.2574,5.258,5.265,5.2628,5.2747,5.2639,5.2643,5.2626,5.2619,5.2626,5.2767,5.2771,5.2773,5.2776,0,5.2134,5.2123,5.2189,5.2253,5.2307,5.2356,5.24,5.2442,5.2418,5.2476,5.2558,5.2605,5.2697,5.2774,5.2839,5.2858,5.2813,5.281,5.2836,5.2844,5.2842,5.2841,5.2491,5.2801,5.2799,5.2797,5.2795,5.2794,5.2339,5.2411,5.2443,5.2518,5.2547,5.2589,5.2657,5.2662,5.273,5.2801,5.2781,5.2874,5.291,5.2992,5.3019,5.309,5.3047,5.3087,5.3096,5.3106,5.3115,5.2833,5.3103,5.3102,5.3101,5.3101,5.31,0,5.2614,5.2631,5.27,5.2761,5.2819,5.277,5.2815,5.2867,5.2949,5.2986,5.3045,5.3138,5.3211,5.3223,5.3292,5.3347,5.3328,5.3366,5.336,5.3364,5.3153,5.312,5.338,5.338,5.338,5.338,5.338,5.338,5.2764,5.2882,5.2875,5.3007,5.3023,5.3111,5.3141,5.3178,5.3207,5.3313,5.3372,5.3379,5.3405,5.3475,5.354,5.3541,5.3568,5.3614,5.3607,5.3408,5.338,5.3353,5.3323,5.3621,5.3621,5.3812,5.3814,5.3815]},{"header":{"parameterUnit":"m.s-1","parameterCategory":1,"la1":30.2991,"la2":30.254,"lo1":-89.0895,"lo2":-89.0444,"dy":0.0017,"dx":0.0017,"nx":28,"ny":28,"refTime":"2024-07-28T09:00:00:Z","depth":0,"parameterNumber":3,"parameterNumberName":"V-component_of_WINDS"},"data":[0,0,0,0,0,0,0,0,0,0,0,0,0,0,0,0,0,0,0,0,0,0,0,0,0,0,0,0,0,0,0,0,0,0,0,0,0,0,0,0,0,0,0,0,0,0,0,0,0,0,0,0,0,0,0,0,0,0,3.5864,3.5865,0,3.5988,3.5989,3.5991,3.5976,3.5974,3.5972,3.597,3.6094,3.6099,3.6104,0,0,0,0,0,0,0,0,0,0,0,0,0,3.5608,3.5613,3.5864,3.5865,3.5867,3.5988,3.5989,3.5991,3.5976,3.5974,3.5972,3.5969,3.6092,3.6098,3.6104,0,0,0,0,0,0,0,0,0,0,0,0,0,3.5725,3.5615,3.5863,3.5874,3.5876,3.5987,3.599,3.5992,3.5977,3.5974,3.5971,3.5968,3.609,3.6097,3.6105,3.6212,0,0,3.6129,3.6132,0,0,0,0,0,0,0,0,3.5718,3.5734,3.5871,3.5874,3.5876,3.5964,3.5945,3.6065,3.5978,3.5939,3.597,3.5967,3.6052,3.6063,3.6093,3.6218,3.6223,3.6129,3.6134,3.6137,3.6139,0,0,0,0,0,0,0,3.571,3.5728,3.5913,3.5873,3.5876,3.5871,3.5884,3.5968,3.6011,3.5942,3.5941,3.5956,3.6053,3.6085,3.6096,3.6225,3.6129,3.6136,3.6141,3.6144,3.6442,3.6445,0,0,0,0,0,0,3.57,3.5722,3.5909,3.5916,3.5788,3.5878,3.5893,3.5938,3.601,3.6018,3.5958,3.5955,3.6074,3.6087,3.61,3.6229,3.6137,3.6144,3.6149,3.6438,3.6442,3.6446,0,0,0,0,0,0,3.5694,3.5717,3.5904,3.5819,3.5842,3.5886,3.5937,3.5942,3.5975,3.6022,3.603,3.5984,3.6072,3.6089,3.6184,3.6233,3.6148,3.6155,3.6435,3.644,3.6444,3.6488,0,0,0,0,0,0,3.5687,3.5715,3.5757,3.582,3.5847,3.5988,3.594,3.5947,3.5988,3.5985,3.6048,3.6056,3.6071,3.6173,3.6192,3.6242,3.6161,3.643,3.6437,3.6443,3.6482,3.6493,3.6503,0,0,0,0,0,3.5678,3.5765,3.576,3.5782,3.5902,3.5991,3.6006,3.6023,3.5992,3.6035,3.6065,3.6054,3.6224,3.6183,3.6204,3.6257,3.6427,3.6435,3.6442,3.6477,3.6491,3.6503,0,0,0,0,0,0,3.5706,3.5773,3.5768,3.5878,3.5929,3.5988,3.6042,3.6037,3.6097,3.6091,3.6108,3.6122,3.6218,3.6247,3.6199,3.6363,3.6321,3.6333,3.6341,3.6354,3.6365,3.6355,3.6167,0,0,0,0,0,3.5725,3.5793,3.5847,3.5939,3.5964,3.5999,3.6038,3.6047,3.61,3.6121,3.6158,3.6208,3.6273,3.6315,3.6378,3.6486,3.6498,3.6533,3.6543,3.6552,3.6562,3.6618,3.6634,3.647,3.647,3.647,0,0,3.5764,3.5809,3.5851,3.5945,3.5986,3.6054,3.6017,3.6091,3.6142,3.6132,3.6224,3.6253,3.631,3.6411,3.6458,3.6438,3.6609,3.6561,3.6568,3.6573,3.6628,3.6643,3.6657,3.6475,3.6474,3.6474,0,0,3.5871,3.5913,3.5993,3.6034,3.6096,3.6118,3.6137,3.6196,3.6215,3.6308,3.6301,3.636,3.6472,3.6513,3.6548,3.6668,3.6658,3.6687,3.6742,3.6798,3.681,3.6822,3.6863,3.6877,3.6697,3.6697,3.6697,0,3.5912,3.6017,3.6034,3.6109,3.615,3.6144,3.6224,3.6262,3.6341,3.6368,3.6345,3.6484,3.6522,3.6632,3.6661,3.669,3.671,3.668,3.6807,3.6819,3.683,3.6869,3.6885,3.67,3.67,3.67,3.6699,0,3.6063,3.6135,3.6192,3.6269,3.6315,3.6392,3.6419,3.6464,3.6468,3.6492,3.6585,3.663,3.6701,3.6727,3.6732,3.6837,3.6823,3.6804,3.6762,3.6848,3.6885,3.6901,3.6705,3.6703,3.6703,3.6702,0,0,3.6192,3.6276,3.6296,3.633,3.6397,3.6452,3.6527,3.6597,3.6634,3.6688,3.675,3.6844,3.6826,3.6866,3.6875,3.6923,3.7013,3.6898,3.6899,3.6916,3.7129,3.7142,3.7159,3.7007,3.701,3.7013,3.7123,0,3.6304,3.6439,3.6456,3.6575,3.664,3.6635,3.6701,3.6747,3.6771,3.6828,3.6854,3.6919,3.6892,3.6915,3.6963,3.6992,3.7055,3.6984,3.7063,3.7066,3.7048,3.7179,3.7194,3.7297,3.7138,3.7141,3.7143,0,3.6454,3.6512,3.6638,3.6693,3.6722,3.678,3.6844,3.69,3.6952,3.6965,3.7009,3.7011,3.7086,3.7042,3.7145,3.7096,3.7129,3.7147,3.7152,3.7159,3.7109,3.7188,3.733,3.7345,3.7166,3.7164,3.7162,0,3.6532,3.6642,3.6731,3.676,3.6828,3.6869,3.6899,3.6948,3.6988,3.7044,3.7069,3.7133,3.7167,3.7215,3.7233,3.7199,3.7334,3.7291,3.7345,3.7345,3.7373,3.7371,3.7521,3.7397,3.7396,3.7396,3.7396,0,3.6656,3.6732,3.6768,3.6822,3.6907,3.6925,3.7008,3.7035,3.7079,3.7137,3.7136,3.719,3.7211,3.7268,3.7283,3.7364,3.738,3.7391,3.7394,3.7391,3.7389,3.7412,3.7405,3.74,3.7399,3.7398,3.7398,0,3.6758,3.6785,3.6881,3.6938,3.6953,3.7013,3.706,3.7112,3.7134,3.7208,3.7226,3.7261,3.7327,3.735,3.7431,3.7441,3.7535,3.7532,3.7518,3.7518,3.757,3.7564,3.7739,3.7761,3.7624,3.7625,3.7626,0,3.6834,3.6893,3.6956,3.6995,3.7027,3.709,3.7131,3.715,3.7192,3.7255,3.7298,3.7365,3.7419,3.7526,3.7557,3.7618,3.7615,3.7672,3.7625,3.7619,3.7614,3.761,3.7615,3.7681,3.7682,3.7684,3.7685,0,3.6966,3.6976,3.7036,3.71,3.7149,3.72,3.725,3.7281,3.7307,3.7354,3.7423,3.7465,3.7547,3.7613,3.7675,3.7703,3.7698,3.7699,3.7715,3.7712,3.77,3.7705,3.7541,3.7695,3.7694,3.7693,3.7693,3.7692,3.7057,3.7108,3.716,3.7226,3.7265,3.731,3.7361,3.739,3.7448,3.7517,3.7524,3.7598,3.7646,3.7729,3.776,3.7816,3.78,3.7823,3.7828,3.7833,3.7836,3.7692,3.7828,3.7827,3.7827,3.7827,3.7827,0,3.7187,3.722,3.728,3.7349,3.7401,3.7392,3.7446,3.7488,3.7554,3.76,3.7653,3.7731,3.7793,3.7829,3.7891,3.7929,3.7928,3.7945,3.7942,3.7948,3.7848,3.7828,3.7945,3.7945,3.7945,3.7945,3.7945,3.7945,3.7261,3.7347,3.7363,3.7467,3.7498,3.7571,3.7602,3.7643,3.768,3.7767,3.782,3.7843,3.7884,3.7949,3.8005,3.8014,3.8036,3.8054,3.8061,3.7967,3.7955,3.7943,3.7924,3.8059,3.806,3.8156,3.8156,3.8157]}]]